Qianfan Jigui 18-13

operational
NORAD ID: 66045 Int'l Des: 2025-233 Owner: YUANX Country: CN Constellation: qianfan
NOTLE

About Qianfan Jigui 18-13

Description loading...

Live Position

Loading 3D Globe...

Upcoming Passes

Altitude History

Altitude vs Time

uPlot chart will show altitude changes over time

Two-Line Element Set

1 66045U 25233N 25318.83034139 .00000967 00000-0 42920-3 0 9998
2 66045 88.9940 65.2349 0016998 124.1596 236.1210 14.22183375 4062
Epoch: Nov 14, 2025 • Age: 8 hours

Current Status

Altitude 836.1 km
Velocity 7.43 km/s
Sub-Earth Point -42.13°S, 135.8°E
Launch Date Oct 17, 2025
Age 29 days
Type internet

Technical Details

Classification Payload
Mass 267.00 kg
Dry Mass 267.00 kg
Total Mass 267.00 kg
Length 0.30 m
Diameter 3.00 m
Span 10.00 m
Shape Box+pan
Manufacturer SECM
Bus Type Qianfan
Phase Status In Orbit
Owner/State YUANX/CN

Large Constellations

Loading constellations...